Regional Weather Roundup
Issued by NWS

Home | Current Version | Previous Version | Text Only | Print | Product List | Glossary Off
Versions: 1 2 3 4 5 6 7 8 9 10 11 12 13 14 15 16 17 18 19 20 21 22 23 24 25 26 27 28 29 30 31 32 33 34 35 36 37 38 39 40 41 42 43 44 45 46 47 48 49 50

000
ASUS45 KBOU 290607
RWRCO

WEATHER ROUNDUP FOR COLORADO
NATIONAL WEATHER SERVICE DENVER/BOULDER CO
1200 AM MDT TUE JUL 29 2014

NOTE: "FAIR" INDICATES FEW OR NO CLOUDS BELOW 12000 FEET WITH NO
SIGNIFICANT WEATHER AND/OR OBSTRUCTIONS TO VISIBILITY.

COZ001>005-013-030-031-290700-
...NORTHWEST COLORADO...

CITY           SKY/WX    TMP DP  RH WIND       PRES   REMARKS
CRAIG          CLOUDY    57  56  96 CALM      30.35R
HAYDEN         CLOUDY    68  45  42 NE3       30.36S
MEEKER         CLOUDY    65  52  62 CALM      30.36F
MOUNT WERNER   NOT AVBL
STEAMBOAT SPGS CLOUDY    65  48  55 CALM      30.38S
WALDEN         CLEAR     55  43  62 SE6       30.47F
$$

COZ006>008-011-290700-
...WEST CENTRAL VALLEYS...

CITY           SKY/WX    TMP DP  RH WIND       PRES   REMARKS
GRAND JUNCTION CLOUDY    70  57  63 E16       30.26R
MONTROSE       LGT RAIN  61  58  90 SE14      30.39F
EAGLE          CLOUDY    63  54  72 E3        30.41S
RIFLE          CLOUDY    65  58  78 S3        30.32S
DELTA          LGT RAIN  65  61  86 SE3       30.35S
NUCLA          CLOUDY    61  57  88 CALM      30.41R
$$

COZ017>023-064>068-290700-
...SOUTHWEST COLORADO...

CITY           SKY/WX    TMP DP  RH WIND       PRES   REMARKS
DURANGO        CLOUDY    60  57  89 CALM      30.41F
CORTEZ         CLOUDY    63  61  93 SW6       30.36S
PAGOSA SPRINGS CLOUDY    60  54  82 CALM      30.49S
TELLURIDE      CLOUDY    54  50  87 CALM      30.56F
WOLF CREEK PAS NOT AVBL
$$

COZ009-010-012-014-032>034-037-058>063-290700-
...CENTRAL COLORADO...

CITY           SKY/WX    TMP DP  RH WIND       PRES   REMARKS
ASPEN          CLOUDY    57  52  83 S6        30.45F
BUENA VISTA    CLOUDY    56  54  93 CALM      30.51F
COPPER MTN     CLOUDY    52  39  62 S22       30.74F
BERTHOUD PASS  FAIR      43  30  61 E17       30.80F
COTTONWOOD PAS CLOUDY    54  46  76 CALM      30.62F
GUNNISON       CLOUDY    55  52  88 W3        30.53F
KREMMLING      MOCLDY    61  45  55 CALM      30.44S
LEADVILLE      LGT RAIN  48  47  96 SE3       30.61F
MONARCH PASS   CLOUDY    43  41  93 SW15      30.86F
SALIDA         CLOUDY    59  56  89 NW3       30.54F
SUNLIGHT       CLOUDY    52  46  82 CALM      30.67S
WILKERSON PASS MOCLDY    45  43  93 SW7       30.73F
$$

COZ069>075-290700-
...SAN LUIS VALLEY/SANGRE DE CRISTO MOUNTAINS...

CITY           SKY/WX    TMP DP  RH WIND       PRES   REMARKS
ALAMOSA        CLOUDY    56  55  97 NW6       30.49F
LA VETA PASS   CLOUDY    46  45  93 SW9       30.62F
SAGUACHE       LGT RAIN  55  54  94 CALM      30.53F
$$

COZ035-036-038>040-290700-
...NORTHERN COLORADO FRONT RANGE...

CITY           SKY/WX    TMP DP  RH WIND       PRES   REMARKS
DENVER INTL AP PTCLDY    65  57  75 SW9       30.29S
DMNS CITY PARK   N/A     65  53  64 SW2       30.28S
AURORA         PTCLDY    65  58  77 S10       30.30F
FRONT RANGE AP NOT AVBL
ERIE MUNI ARPT PTCLDY    66  59  80 N3        30.28S
BOULDER MUN AP PTCLDY    68  55  64 CALM      30.29F
CENTENNIAL     PTCLDY    62  55  77 S9        30.32S
BROOMFIELD     PTCLDY    68  59  73 NW7       30.32S
FORT COLLINS   MOCLDY    66  54  63 N5        30.28F
LONGMONT       MOCLDY    72  58  62 NW5       30.29F
$$

COZ041-046-047-076>085-087-088-290700-
...PIKES PEAK/PALMER DIVIDE AND SOUTHERN FOOTHILLS...

CITY           SKY/WX    TMP DP  RH WIND       PRES   REMARKS
COLO. SPRINGS  CLOUDY    63  59  87 NE7       30.36F
A. F. ACADEMY  MOCLDY    58  58  99 N5        30.38F
ELLICOTT       MOCLDY    63  61  93 SE7       30.34F
FALCON         MOCLDY    61  58  91 CALM      30.41F
FORT CARSON    CLOUDY    64  58  79 N8        30.33F
LIMON          PTCLDY    61  55  81 SE5       30.33S
MONUMENT HILL  PTCLDY    55  54  94 SW7       30.40F
TRINIDAD       CLOUDY    64  57  78 SW3       30.35S
$$

COZ042>045-048>051-090-091-290700-
...NORTHEAST COLORADO...

CITY           SKY/WX    TMP DP  RH WIND       PRES   REMARKS
GREELEY ARPT   MOCLDY    68  57  68 CALM      30.26F
AKRON          MOCLDY    69  56  62 S9        30.28R
BURLINGTON     PTCLDY    64  58  80 S8        30.27F
WRAY             N/A     73  55  54 S9        30.23S
STERLING       MOCLDY    72  63  73 SW3       30.22F
HOLYOKE        CLOUDY    66  55  68 S6        30.23S
FORT MORGAN    MOCLDY    69  55  62 CALM      30.25S
$$

COZ086-089-092>099-290700-
...SOUTHEAST COLORADO...

CITY           SKY/WX    TMP DP  RH WIND       PRES   REMARKS
PUEBLO         MOCLDY    67  63  87 CALM      30.26F
LA JUNTA       MOCLDY    70  64  81 CALM      30.24F
LAMAR          MOCLDY    66  61  84 E6        30.22F
SPRINGFIELD      N/A     64  63  96 S9        30.30R
$$



USA.gov is the U.S. government's official web portal to all federal, state and local government web resources and services.